Location: Mouss�
(47.9236°N, 1.2701°W)
Time: 10:19:23
(UTC+00:00)

Meteor 2-20 - Pass Details

Date: 03 March 2021
Orbit: 940 x 958 km, 82.5° (Epoch: 10 April)

Event Time Altitude Azimuth Distance (km) Brightness Sun altitude
Rises 20:28:17 0° 349° (N) 3,623 7.9 -26.4°
Reaches altitude 10° 20:30:46 10° 349° (N) 2,676 7.2 -26.8°
Maximum altitude 20:36:54 82° 263° (W) 963 4.4 -27.8°
Enters shadow 20:38:15 57° 185° (S) 1,109 4.6 -28.0°
